Date,TemperatureHighF,TemperatureAvgF,TemperatureLowF,DewpointHighF,DewpointAvgF,DewpointLowF,HumidityHigh,HumidityAvg,HumidityLow,PressureMaxIn,PressureMinIn,WindSpeedMaxMPH,WindSpeedAvgMPH,GustSpeedMaxMPH,PrecipitationSumIn
2013-1-15,42,39,35,21,19,15,45,44,42,30.63,30.59,5,2,9,0.00
2013-9-12,72,62,53,50,45,39,62,55,45,29.83,29.79,9,1,15,0.00
2013-9-13,78,61,44,52,43,35,76,53,38,29.83,29.67,10,1,14,0.00
2013-9-14,81,62,46,51,42,36,81,52,27,29.74,29.65,11,1,18,0.00
2013-9-15,80,64,45,46,40,34,69,44,28,29.78,29.70,13,2,16,0.00
2013-9-16,79,62,44,44,39,30,62,44,28,29.80,29.70,16,2,16,0.00
2013-9-17,72,57,40,48,34,16,70,44,20,29.75,29.64,13,3,22,0.00
2013-9-18,72,55,35,46,35,24,70,47,29,29.82,29.64,12,2,26,0.00
2013-9-19,75,54,34,36,29,22,71,43,24,29.90,29.81,11,1,14,0.00
2013-9-20,42,40,39,24,23,22,54,50,46,29.87,29.84,0,0,2,0.00
2013-9-22,44,38,34,33,29,27,74,69,65,29.96,29.88,2,0,2,0.00
2013-9-23,34,33,33,27,25,24,75,71,68,30.02,29.97,1,0,2,0.00
2013-9-25,55,50,42,34,29,22,59,44,33,29.58,29.52,28,11,35,0.00
2013-9-26,49,41,31,30,26,22,72,56,38,29.98,29.69,16,4,20,0.00
2013-9-27,59,40,23,34,25,18,82,58,32,30.20,29.98,10,1,12,0.00
2013-9-28,30,30,29,18,18,18,62,62,62,30.21,30.20,1,0,2,0.00
2013-10-7,59,52,45,26,21,16,34,29,27,29.96,29.91,11,1,15,0.00
2013-10-8,48,45,42,18,16,14,34,31,29,29.91,29.84,5,1,9,0.00
2013-10-14,37,31,27,21,19,18,69,61,51,30.20,30.17,1,0,2,0.00
2013-10-15,57,38,24,30,23,16,79,55,36,30.21,30.10,7,1,10,0.00
2013-10-16,28,26,24,17,16,15,67,64,62,30.21,30.20,5,0,5,0.00
2013-10-17,55,35,25,25,14,9,51,42,27,30.19,30.16,7,1,8,0.00
2013-10-19,68,50,32,32,21,6,42,33,22,30.16,30.12,9,2,11,0.00
2013-10-20,68,41,26,30,12,-1,41,30,22,30.14,30.01,7,1,10,0.00
2013-10-27,59,50,43,38,32,30,75,51,33,29.85,29.54,30,10,36,0.00
2013-10-28,44,36,30,30,25,18,87,68,37,29.56,29.49,33,14,48,0.00
2013-10-30,44,41,37,36,34,32,79,75,73,30.15,30.14,0,0,6,0.31
2013-10-31,55,54,53,26,24,23,34,31,30,30.24,30.23,4,1,9,0.00
2013-11-1,50,38,30,31,27,23,76,66,49,30.23,30.21,2,0,4,0.00
2013-11-2,58,50,45,29,25,22,46,39,32,30.12,29.92,11,2,19,0.00
2013-11-3,59,42,29,29,23,16,67,50,22,29.92,29.73,23,4,27,0.00
2013-11-4,45,33,28,29,21,13,77,63,39,29.85,29.74,7,0,9,0.00
2013-11-5,45,30,24,20,16,14,70,58,32,30.44,30.30,1,0,2,0.00
2013-11-6,53,52,51,24,23,23,33,32,32,30.43,30.42,2,0,6,0.00
2013-11-7,54,36,29,30,24,18,69,61,39,30.34,30.17,2,0,5,0.00
2013-11-8,55,31,28,29,19,17,72,62,30,30.18,30.14,4,0,5,0.00